Weather in Ul'yanovskaya

Russia / Arkhangel'skaya Oblast'     60°53′21″N   43°06′43″E
temp.,
°C
wind,
m/s
gust,
m/s
humid.,
%
clouds,
%
prec.,
mm/h
press.,
hPa
HPBL,
m
28 november, sun
sun2800:00−3ene4996100 1.1 1006402
03:00−3ene4997100 3.9 1003349
06:00−1ese2898100 2.8 1000419
09:000sse2798100 3.8 999468
12:000s2599100 0.8 1000271
15:00−1ese1299100 1.5 99984
18:00−1se1599100 1.4 999443
21:00+1sw31199100 3.3 999885
29 november, mon
mon2900:00−3wnw3898100 1.3 1002413
03:00−8w389793 1.7 1007360
06:00−12wsw1199100 0.1 100928
09:00−13wnw1199100 0.1 101118
12:00−11n129485 0.0 1013134
15:00−14ne119862 0.0 101314
18:00−14ne2796100 0.0 1013163
21:00−14ene399697 0.0 1010212
30 november, tue
tue3000:00−13ene41294100 0.0 1007285
03:00−11ene41493100 0.1 1002395
06:00−9ene51593100 0.3 997448
09:00−8ene51594100 1.4 992523
12:00−7ene51493100 1.1 987497
15:00−7ne51394100 1.7 982521
18:00−7ne51395100 1.8 978495
21:00−6ne41095100 5.5 976424
1 december, wed
wed100:00−6nne3796100 2.2 976320
03:00−6n2497100 3.0 976173
06:00−6nw1297100 0.3 978108
09:00−7wsw2497100 1.1 980188
12:00−7ssw2596100 0.8 983340
15:00−7sw2796100 1.8 984429
18:00−7ssw2596100 1.1 986381
21:00−7ssw1497100 2.2 986281
2 december, thu
thu200:00−10sw129881 0.5 98749
03:00−9wsw279585 0.9 987366
06:00−9sw389698 0.3 988352
09:00−11wsw4109490 0.4 989351
12:00−9wsw41192100 0.1 991507
15:00−11wsw4119192 0.1 992428
18:00−12sw4119383 0.0 994368
21:00−14sw3109474 0.0 995286